Time,TemperatureF,DewpointF,PressureIn,WindDirection,WindDirectionDegrees,WindSpeedMPH,WindSpeedGustMPH,Humidity,HourlyPrecipIn,Conditions,Clouds,dailyrainin,SoftwareType,DateUTC
2013-07-05 00:01:00,70.4,70.4,28.69,South,177,0.0,0.0,100,0.00,CLR,CLR,0.00,WeatherDisplay:10.37,2013-07-05 04:01:00,
2013-07-05 00:02:00,70.4,70.4,28.69,South,177,0.0,0.0,100,0.00,CLR,CLR,0.00,WeatherDisplay:10.37,2013-07-05 04:02:00,
2013-07-05 00:07:00,70.4,70.4,28.69,South,177,0.0,0.0,100,0.00,CLR,CLR,0.00,WeatherDisplay:10.37,2013-07-05 04:07:00,
2013-07-05 00:12:00,70.4,70.4,28.69,SSE,156,2.3,2.3,100,0.00,CLR,CLR,0.00,WeatherDisplay:10.37,2013-07-05 04:12:00,
2013-07-05 00:17:00,70.5,70.5,28.69,SE,132,3.5,3.5,100,0.00,CLR,CLR,0.00,WeatherDisplay:10.37,2013-07-05 04:17:00,
2013-07-05 00:22:00,70.5,70.5,28.70,SE,132,0.0,0.0,100,0.00,CLR,CLR,0.00,WeatherDisplay:10.37,2013-07-05 04:22:00,
2013-07-05 00:28:00,70.4,70.4,28.69,SE,131,0.0,0.0,100,0.00,CLR,CLR,0.00,WeatherDisplay:10.37,2013-07-05 04:28:00,
2013-07-05 00:33:00,70.4,70.4,28.69,SE,132,0.0,0.0,100,0.00,CLR,CLR,0.00,WeatherDisplay:10.37,2013-07-05 04:33:00,
2013-07-05 00:38:00,70.4,70.4,28.68,SE,132,0.0,0.0,100,0.00,CLR,CLR,0.00,WeatherDisplay:10.37,2013-07-05 04:38:00,
2013-07-05 00:43:00,70.5,70.5,28.70,SSE,165,12.0,12.0,100,0.01,RA,RA,0.02,WeatherDisplay:10.37,2013-07-05 04:43:00,
2013-07-05 00:48:00,70.3,70.3,28.69,South,181,15.0,15.0,100,0.10,RA,RA,0.11,WeatherDisplay:10.37,2013-07-05 04:48:00,
2013-07-05 00:53:00,69.8,69.8,28.70,South,171,16.1,16.1,100,0.19,RA,RA,0.19,WeatherDisplay:10.37,2013-07-05 04:53:00,
2013-07-05 00:58:00,69.5,69.5,28.69,SSW,192,11.5,11.5,100,0.21,RA,RA,0.21,WeatherDisplay:10.37,2013-07-05 04:58:00,
2013-07-05 01:03:00,69.3,68.4,28.69,South,177,11.5,11.5,97,0.25,RA,RA,0.26,WeatherDisplay:10.37,2013-07-05 05:03:00,
2013-07-05 01:08:00,69.1,67.9,28.69,South,185,6.9,6.9,96,0.34,RA,RA,0.34,WeatherDisplay:10.37,2013-07-05 05:08:00,
2013-07-05 01:13:00,68.9,66.8,28.69,SSW,205,8.1,8.1,93,0.36,RA,RA,0.36,WeatherDisplay:10.37,2013-07-05 05:13:00,
2013-07-05 01:18:00,68.8,65.7,28.69,South,170,5.8,5.8,90,0.36,RA,RA,0.36,WeatherDisplay:10.37,2013-07-05 05:18:00,
2013-07-05 01:24:00,68.8,65.4,28.69,SSE,164,3.5,3.5,89,0.36,CLR,CLR,0.36,WeatherDisplay:10.37,2013-07-05 05:24:00,
2013-07-05 01:29:00,68.7,65.0,28.69,South,191,4.6,4.6,88,0.36,CLR,CLR,0.36,WeatherDisplay:10.37,2013-07-05 05:29:00,
2013-07-05 01:34:00,68.7,64.7,28.69,SSW,193,4.0,4.0,87,0.36,CLR,CLR,0.36,WeatherDisplay:10.37,2013-07-05 05:34:00,
2013-07-05 01:39:00,68.6,63.9,28.69,South,191,3.5,3.5,85,0.36,CLR,CLR,0.36,WeatherDisplay:10.37,2013-07-05 05:39:00,
2013-07-05 01:44:00,68.5,63.8,28.69,South,190,4.6,4.6,85,0.31,CLR,CLR,0.36,WeatherDisplay:10.37,2013-07-05 05:44:00,
2013-07-05 01:49:00,68.4,64.0,28.68,South,190,3.5,3.5,86,0.24,CLR,CLR,0.36,WeatherDisplay:10.37,2013-07-05 05:49:00,
2013-07-05 01:54:00,68.3,65.9,28.68,South,190,3.5,3.5,92,0.17,CLR,CLR,0.36,WeatherDisplay:10.37,2013-07-05 05:54:00,
2013-07-05 01:59:00,68.2,65.8,28.68,South,190,2.3,2.3,92,0.14,CLR,CLR,0.36,WeatherDisplay:10.37,2013-07-05 05:59:00,
2013-07-05 02:04:00,68.2,63.9,28.68,South,190,3.5,3.5,86,0.08,CLR,CLR,0.36,WeatherDisplay:10.37,2013-07-05 06:04:00,
2013-07-05 02:10:00,68.2,62.1,28.68,South,190,2.3,2.3,81,0.01,CLR,CLR,0.36,WeatherDisplay:10.37,2013-07-05 06:10:00,
2013-07-05 02:15:00,68.3,60.1,28.69,SSW,192,3.5,3.5,75,0.00,CLR,CLR,0.36,WeatherDisplay:10.37,2013-07-05 06:15:00,
2013-07-05 02:20:00,68.3,60.8,28.69,SSW,192,0.0,0.3,77,0.00,CLR,CLR,0.36,WeatherDisplay:10.37,2013-07-05 06:20:00,
2013-07-05 02:25:00,68.3,63.3,28.68,SSW,192,3.5,3.5,84,0.00,CLR,CLR,0.36,WeatherDisplay:10.37,2013-07-05 06:25:00,
2013-07-05 02:30:00,68.3,64.6,28.69,SSW,192,2.3,2.3,88,0.00,CLR,CLR,0.36,WeatherDisplay:10.37,2013-07-05 06:30:00,
2013-07-05 02:35:00,68.3,64.6,28.68,SSW,192,2.3,2.3,88,0.00,CLR,CLR,0.36,WeatherDisplay:10.37,2013-07-05 06:35:00,
2013-07-05 02:40:00,68.2,64.5,28.68,SSW,192,2.3,2.3,88,0.00,CLR,CLR,0.36,WeatherDisplay:10.37,2013-07-05 06:40:00,
2013-07-05 02:46:00,68.2,64.5,28.68,SSW,192,3.5,3.5,88,0.00,CLR,CLR,0.36,WeatherDisplay:10.37,2013-07-05 06:46:00,
2013-07-05 02:51:00,68.2,64.5,28.68,SSW,192,0.0,0.0,88,0.00,CLR,CLR,0.36,WeatherDisplay:10.37,2013-07-05 06:51:00,
2013-07-05 02:56:00,68.1,64.7,28.67,SSW,192,1.2,0.0,89,0.00,CLR,CLR,0.36,WeatherDisplay:10.37,2013-07-05 06:56:00,
2013-07-05 03:01:00,68.1,65.1,28.67,SSW,192,2.3,0.0,90,0.00,CLR,CLR,0.36,WeatherDisplay:10.37,2013-07-05 07:01:00,
2013-07-05 03:06:00,68.1,66.9,28.68,SSW,192,0.0,0.0,96,0.00,CLR,CLR,0.36,WeatherDisplay:10.37,2013-07-05 07:06:00,
2013-07-05 03:11:00,68.2,67.0,28.68,SSW,192,1.2,1.2,96,0.00,CLR,CLR,0.36,WeatherDisplay:10.37,2013-07-05 07:11:00,
2013-07-05 03:16:00,68.3,67.1,28.67,SSW,192,0.0,0.0,96,0.00,CLR,CLR,0.36,WeatherDisplay:10.37,2013-07-05 07:16:00,
2013-07-05 03:21:00,68.3,67.1,28.67,SSW,192,0.0,0.0,96,0.00,CLR,CLR,0.36,WeatherDisplay:10.37,2013-07-05 07:21:00,
2013-07-05 03:26:00,68.4,66.9,28.67,SSW,192,0.0,0.0,95,0.00,CLR,CLR,0.36,WeatherDisplay:10.37,2013-07-05 07:26:00,
2013-07-05 03:31:00,68.4,66.9,28.67,SSW,192,0.0,0.0,95,0.00,CLR,CLR,0.36,WeatherDisplay:10.37,2013-07-05 07:31:00,
2013-07-05 03:37:00,68.4,67.5,28.67,SSW,192,0.0,0.0,97,0.00,CLR,CLR,0.36,WeatherDisplay:10.37,2013-07-05 07:37:00,
2013-07-05 03:42:00,68.4,67.2,28.66,SSW,192,0.0,0.0,96,0.00,CLR,CLR,0.36,WeatherDisplay:10.37,2013-07-05 07:42:00,
2013-07-05 03:47:00,68.4,67.2,28.67,SSW,192,0.0,0.0,96,0.00,CLR,CLR,0.36,WeatherDisplay:10.37,2013-07-05 07:47:00,
2013-07-05 03:52:00,68.4,66.9,28.66,SSW,192,0.0,0.0,95,0.00,CLR,CLR,0.36,WeatherDisplay:10.37,2013-07-05 07:52:00,
2013-07-05 03:57:00,68.4,67.2,28.67,SSW,192,0.0,0.0,96,0.00,CLR,CLR,0.36,WeatherDisplay:10.37,2013-07-05 07:57:00,
2013-07-05 04:03:00,68.5,67.3,28.67,SSW,192,0.0,0.0,96,0.00,CLR,CLR,0.36,WeatherDisplay:10.37,2013-07-05 08:03:00,
2013-07-05 04:08:00,68.5,67.6,28.67,SSW,192,0.0,0.0,97,0.00,CLR,CLR,0.36,WeatherDisplay:10.37,2013-07-05 08:08:00,
2013-07-05 04:13:00,68.5,67.6,28.67,SSW,192,0.0,0.0,97,0.00,CLR,CLR,0.36,WeatherDisplay:10.37,2013-07-05 08:13:00,
2013-07-05 04:18:00,68.4,67.2,28.67,SSW,192,1.2,1.2,96,0.00,CLR,CLR,0.36,WeatherDisplay:10.37,2013-07-05 08:18:00,
2013-07-05 04:23:00,68.4,67.5,28.67,SSW,192,0.0,0.0,97,0.00,CLR,CLR,0.36,WeatherDisplay:10.37,2013-07-05 08:23:00,
2013-07-05 04:28:00,68.4,67.5,28.67,SSW,192,0.0,0.0,97,0.00,CLR,CLR,0.36,WeatherDisplay:10.37,2013-07-05 08:28:00,
2013-07-05 04:33:00,68.3,67.1,28.67,SSW,192,0.0,0.0,96,0.00,CLR,CLR,0.36,WeatherDisplay:10.37,2013-07-05 08:33:00,
2013-07-05 04:39:00,68.3,67.4,28.67,SSW,192,0.0,0.0,97,0.00,CLR,CLR,0.36,WeatherDisplay:10.37,2013-07-05 08:39:00,
2013-07-05 04:44:00,68.3,67.1,28.67,SSW,192,0.0,0.0,96,0.00,CLR,CLR,0.36,WeatherDisplay:10.37,2013-07-05 08:44:00,
2013-07-05 04:49:00,68.4,67.8,28.67,SSW,192,0.0,0.0,98,0.00,CLR,CLR,0.36,WeatherDisplay:10.37,2013-07-05 08:49:00,
2013-07-05 04:54:00,68.3,67.4,28.67,SSW,192,0.0,0.0,97,0.00,CLR,CLR,0.36,WeatherDisplay:10.37,2013-07-05 08:54:00,
2013-07-05 04:59:00,68.4,67.5,28.67,SSW,192,0.0,0.0,97,0.00,CLR,CLR,0.36,WeatherDisplay:10.37,2013-07-05 08:59:00,
2013-07-05 05:04:00,68.5,67.6,28.67,SSW,192,0.0,0.0,97,0.00,CLR,CLR,0.36,WeatherDisplay:10.37,2013-07-05 09:04:00,
2013-07-05 05:10:00,68.6,68.0,28.67,SSW,192,0.0,0.0,98,0.00,CLR,CLR,0.36,WeatherDisplay:10.37,2013-07-05 09:10:00,
2013-07-05 05:15:00,68.6,68.0,28.67,SSW,192,0.0,0.0,98,0.00,CLR,CLR,0.36,WeatherDisplay:10.37,2013-07-05 09:15:00,
2013-07-05 05:20:00,68.7,68.1,28.67,SSW,192,0.0,0.0,98,0.00,CLR,CLR,0.36,WeatherDisplay:10.37,2013-07-05 09:20:00,
2013-07-05 05:25:00,68.7,68.1,28.67,SSW,192,0.0,0.0,98,0.00,CLR,CLR,0.36,WeatherDisplay:10.37,2013-07-05 09:25:00,
2013-07-05 05:31:00,68.7,68.1,28.68,SSW,192,0.0,0.0,98,0.00,CLR,CLR,0.36,WeatherDisplay:10.37,2013-07-05 09:31:00,
2013-07-05 05:36:00,68.8,68.2,28.67,SSW,192,0.0,0.0,98,0.00,CLR,CLR,0.36,WeatherDisplay:10.37,2013-07-05 09:36:00,
2013-07-05 05:41:00,68.9,68.3,28.68,SSW,192,0.0,0.0,98,0.00,CLR,CLR,0.36,WeatherDisplay:10.37,2013-07-05 09:41:00,
2013-07-05 06:13:00,69.2,68.3,28.70,SSW,192,0.0,0.0,97,0.00,CLR,CLR,0.36,WeatherDisplay:10.37,2013-07-05 10:13:00,
2013-07-05 06:18:00,69.2,68.3,28.70,SSW,192,0.0,0.0,97,0.00,CLR,CLR,0.36,WeatherDisplay:10.37,2013-07-05 10:18:00,
2013-07-05 06:23:00,69.3,68.4,28.73,SSW,192,0.0,0.0,97,0.00,CLR,CLR,0.36,WeatherDisplay:10.37,2013-07-05 10:23:00,
2013-07-05 06:30:00,69.3,68.4,28.70,SSW,192,0.0,0.0,97,0.00,CLR,CLR,0.36,WeatherDisplay:10.37,2013-07-05 10:30:00,
2013-07-05 06:35:00,69.4,68.5,28.71,SSW,192,0.0,0.0,97,0.00,CLR,CLR,0.36,WeatherDisplay:10.37,2013-07-05 10:35:00,
2013-07-05 06:40:00,69.5,68.6,28.70,SSW,192,1.2,0.0,97,0.00,CLR,CLR,0.36,WeatherDisplay:10.37,2013-07-05 10:40:00,
2013-07-05 06:46:00,69.6,68.7,28.70,SSW,192,0.0,0.0,97,0.00,CLR,CLR,0.36,WeatherDisplay:10.37,2013-07-05 10:46:00,
2013-07-05 06:51:00,69.7,68.8,28.70,SSW,193,0.0,0.0,97,0.00,CLR,CLR,0.36,WeatherDisplay:10.37,2013-07-05 10:51:00,
2013-07-05 06:57:00,69.9,69.0,28.69,SSW,193,0.0,0.0,97,0.00,CLR,CLR,0.36,WeatherDisplay:10.37,2013-07-05 10:57:00,
2013-07-05 07:02:00,70.0,69.4,28.71,SSW,193,0.0,0.0,98,0.00,CLR,CLR,0.36,WeatherDisplay:10.37,2013-07-05 11:02:00,
2013-07-05 07:08:00,70.1,69.2,28.70,SSW,193,2.3,2.3,97,0.00,CLR,CLR,0.36,WeatherDisplay:10.37,2013-07-05 11:08:00,
2013-07-05 07:13:00,70.1,69.5,28.70,SSW,193,2.3,2.3,98,0.00,CLR,CLR,0.36,WeatherDisplay:10.37,2013-07-05 11:13:00,
2013-07-05 07:19:00,70.2,69.3,28.72,SSW,196,2.3,2.3,97,0.00,CLR,CLR,0.36,WeatherDisplay:10.37,2013-07-05 11:19:00,
2013-07-05 07:24:00,70.4,69.5,28.70,SSW,196,0.0,0.0,97,0.00,CLR,CLR,0.36,WeatherDisplay:10.37,2013-07-05 11:24:00,
2013-07-05 07:29:00,70.5,69.6,28.70,SSW,196,2.3,2.3,97,0.00,CLR,CLR,0.36,WeatherDisplay:10.37,2013-07-05 11:29:00,
2013-07-05 07:34:00,70.5,69.9,28.72,SSW,196,3.5,3.5,98,0.00,CLR,CLR,0.36,WeatherDisplay:10.37,2013-07-05 11:34:00,
2013-07-05 07:40:00,70.6,69.7,28.70,SSW,195,2.3,2.3,97,0.00,CLR,CLR,0.36,WeatherDisplay:10.37,2013-07-05 11:40:00,
2013-07-05 07:45:00,70.8,70.2,28.73,SSW,195,0.0,0.0,98,0.00,CLR,CLR,0.36,WeatherDisplay:10.37,2013-07-05 11:45:00,
2013-07-05 07:50:00,71.0,70.4,28.73,South,190,3.5,3.5,98,0.00,CLR,CLR,0.36,WeatherDisplay:10.37,2013-07-05 11:50:00,
2013-07-05 07:55:00,71.2,70.6,28.73,South,190,0.0,0.0,98,0.00,CLR,CLR,0.36,WeatherDisplay:10.37,2013-07-05 11:55:00,
2013-07-05 08:00:00,71.2,70.6,28.73,South,190,3.5,3.5,98,0.00,CLR,CLR,0.36,WeatherDisplay:10.37,2013-07-05 12:00:00,
2013-07-05 08:05:00,71.4,70.8,28.72,South,190,2.3,2.3,98,0.00,CLR,CLR,0.36,WeatherDisplay:10.37,2013-07-05 12:05:00,
2013-07-05 08:11:00,71.7,70.8,28.73,SSW,203,3.5,3.5,97,0.00,CLR,CLR,0.36,WeatherDisplay:10.37,2013-07-05 12:11:00,
2013-07-05 08:16:00,71.8,70.6,28.75,SW,216,1.2,1.6,96,0.00,CLR,CLR,0.36,WeatherDisplay:10.37,2013-07-05 12:16:00,
2013-07-05 08:23:00,72.1,70.3,28.73,South,186,5.8,5.8,94,0.00,CLR,CLR,0.36,WeatherDisplay:10.37,2013-07-05 12:23:00,
2013-07-05 08:28:00,72.3,70.5,28.72,South,182,3.5,3.5,94,0.00,CLR,CLR,0.36,WeatherDisplay:10.37,2013-07-05 12:28:00,
2013-07-05 08:33:00,72.3,70.2,28.72,SSW,196,4.0,4.0,93,0.00,CLR,CLR,0.36,WeatherDisplay:10.37,2013-07-05 12:33:00,
2013-07-05 08:39:00,72.2,69.7,28.73,South,191,5.0,5.0,92,0.00,CLR,CLR,0.36,WeatherDisplay:10.37,2013-07-05 12:39:00,
2013-07-05 08:45:00,72.2,69.7,28.74,South,182,3.5,3.5,92,0.00,CLR,CLR,0.36,WeatherDisplay:10.37,2013-07-05 12:45:00,
2013-07-05 08:51:00,72.0,69.5,28.74,South,183,3.5,3.5,92,0.00,CLR,CLR,0.36,WeatherDisplay:10.37,2013-07-05 12:51:00,
2013-07-05 08:56:00,71.9,69.1,28.73,SSE,163,4.6,4.6,91,0.00,CLR,CLR,0.36,WeatherDisplay:10.37,2013-07-05 12:56:00,
2013-07-05 09:02:00,72.0,69.5,28.75,SSE,165,4.0,4.0,92,0.00,CLR,CLR,0.36,WeatherDisplay:10.37,2013-07-05 13:02:00,
2013-07-05 09:07:00,72.3,69.5,28.75,South,190,0.0,0.0,91,0.00,CLR,CLR,0.36,WeatherDisplay:10.37,2013-07-05 13:07:00,
2013-07-05 09:13:00,72.5,70.0,28.75,South,190,3.5,3.5,92,0.00,CLR,CLR,0.36,WeatherDisplay:10.37,2013-07-05 13:13:00,
2013-07-05 09:18:00,72.7,70.2,28.75,SSW,194,6.0,6.0,92,0.00,CLR,CLR,0.36,WeatherDisplay:10.37,2013-07-05 13:18:00,
2013-07-05 09:23:00,72.6,69.8,28.74,South,178,5.8,5.8,91,0.00,CLR,CLR,0.36,WeatherDisplay:10.37,2013-07-05 13:23:00,
2013-07-05 09:28:00,72.6,70.1,28.74,South,179,1.2,1.2,92,0.00,CLR,CLR,0.36,WeatherDisplay:10.37,2013-07-05 13:28:00,
2013-07-05 09:33:00,73.0,70.5,28.76,South,179,4.6,4.6,92,0.00,CLR,CLR,0.36,WeatherDisplay:10.37,2013-07-05 13:33:00,
2013-07-05 09:39:00,73.8,71.6,28.74,SSW,193,5.8,5.8,93,0.00,CLR,CLR,0.36,WeatherDisplay:10.37,2013-07-05 13:39:00,
2013-07-05 09:45:00,74.4,72.9,28.74,South,186,4.0,4.0,95,0.00,CLR,CLR,0.36,WeatherDisplay:10.37,2013-07-05 13:45:00,
2013-07-05 09:50:00,74.7,73.5,28.75,SSW,196,5.8,5.8,96,0.00,CLR,CLR,0.36,WeatherDisplay:10.37,2013-07-05 13:50:00,
2013-07-05 09:55:00,74.5,71.0,28.75,South,186,6.9,6.9,89,0.00,CLR,CLR,0.36,WeatherDisplay:10.37,2013-07-05 13:55:00,
2013-07-05 10:00:00,74.3,71.2,28.74,South,172,4.0,4.0,90,0.00,CLR,CLR,0.36,WeatherDisplay:10.37,2013-07-05 14:00:00,
2013-07-05 10:05:00,74.3,71.2,28.75,South,189,9.2,9.2,90,0.00,CLR,CLR,0.36,WeatherDisplay:10.37,2013-07-05 14:05:00,
2013-07-05 10:10:00,74.3,71.2,28.74,ESE,122,4.6,4.6,90,0.00,CLR,CLR,0.36,WeatherDisplay:10.37,2013-07-05 14:10:00,
2013-07-05 10:16:00,74.7,71.6,28.76,SSW,207,4.6,4.6,90,0.00,CLR,CLR,0.36,WeatherDisplay:10.37,2013-07-05 14:16:00,
2013-07-05 10:21:00,74.9,71.4,28.76,South,181,3.0,3.0,89,0.00,CLR,CLR,0.36,WeatherDisplay:10.37,2013-07-05 14:21:00,
2013-07-05 10:26:00,75.3,70.8,28.76,SSE,167,3.5,3.5,86,0.00,CLR,CLR,0.36,WeatherDisplay:10.37,2013-07-05 14:26:00,
2013-07-05 10:31:00,75.8,72.7,28.75,SSW,195,3.5,3.5,90,0.00,CLR,CLR,0.36,WeatherDisplay:10.37,2013-07-05 14:31:00,
2013-07-05 10:36:00,76.0,73.5,28.76,South,189,4.0,4.0,92,0.00,CLR,CLR,0.36,WeatherDisplay:10.37,2013-07-05 14:36:00,
2013-07-05 10:41:00,76.1,74.6,28.77,South,189,2.3,2.3,95,0.00,CLR,CLR,0.36,WeatherDisplay:10.37,2013-07-05 14:41:00,
2013-07-05 10:46:00,77.1,74.6,28.77,SSW,207,2.3,2.3,92,0.00,CLR,CLR,0.36,WeatherDisplay:10.37,2013-07-05 14:46:00,
2013-07-05 10:52:00,77.5,75.6,28.78,SSE,148,3.5,3.5,94,0.00,CLR,CLR,0.36,WeatherDisplay:10.37,2013-07-05 14:52:00,
2013-07-05 10:57:00,78.2,77.0,28.77,South,190,3.5,3.5,96,0.00,CLR,CLR,0.36,WeatherDisplay:10.37,2013-07-05 14:57:00,
2013-07-05 11:02:00,78.8,77.6,28.76,SSW,206,4.6,4.6,96,0.00,CLR,CLR,0.36,WeatherDisplay:10.37,2013-07-05 15:02:00,
2013-07-05 11:07:00,79.1,77.5,28.76,SSW,192,3.0,3.0,95,0.00,CLR,CLR,0.36,WeatherDisplay:10.37,2013-07-05 15:07:00,
2013-07-05 11:13:00,79.5,76.0,28.77,SSE,151,3.5,3.5,89,0.00,CLR,CLR,0.36,WeatherDisplay:10.37,2013-07-05 15:13:00,
2013-07-05 11:18:00,79.9,74.6,28.77,South,187,4.6,4.6,84,0.00,CLR,CLR,0.36,WeatherDisplay:10.37,2013-07-05 15:18:00,
2013-07-05 11:23:00,80.4,74.4,28.77,South,179,8.1,8.1,82,0.00,CLR,CLR,0.36,WeatherDisplay:10.37,2013-07-05 15:23:00,
2013-07-05 11:28:00,80.4,74.0,28.78,SSW,209,5.0,5.0,81,0.00,CLR,CLR,0.36,WeatherDisplay:10.37,2013-07-05 15:28:00,
2013-07-05 11:33:00,80.3,73.6,28.78,South,183,6.9,6.9,80,0.00,CLR,CLR,0.36,WeatherDisplay:10.37,2013-07-05 15:33:00,
2013-07-05 11:38:00,80.4,74.0,28.77,SSW,204,4.6,4.6,81,0.00,CLR,CLR,0.36,WeatherDisplay:10.37,2013-07-05 15:38:00,
2013-07-05 11:43:00,80.9,74.1,28.77,East,89,4.6,4.6,80,0.00,CLR,CLR,0.36,WeatherDisplay:10.37,2013-07-05 15:43:00,
2013-07-05 11:48:00,80.9,73.4,28.78,SSW,210,8.1,8.1,78,0.00,CLR,CLR,0.36,WeatherDisplay:10.37,2013-07-05 15:48:00,
2013-07-05 11:50:00,80.9,73.8,28.78,South,178,6.9,6.9,79,0.00,CLR,CLR,0.36,WeatherDisplay:10.37,2013-07-05 15:50:00,
2013-07-05 11:55:00,80.6,73.1,28.78,SSE,159,3.5,3.5,78,0.00,CLR,CLR,0.36,WeatherDisplay:10.37,2013-07-05 15:55:00,
2013-07-05 12:00:00,80.1,72.6,28.76,SSW,198,5.8,5.8,78,0.00,CLR,CLR,0.36,WeatherDisplay:10.37,2013-07-05 16:00:00,
2013-07-05 12:05:00,79.8,72.7,28.76,SW,215,5.8,5.8,79,0.00,CLR,CLR,0.36,WeatherDisplay:10.37,2013-07-05 16:05:00,
2013-07-05 12:10:00,79.8,72.3,28.76,SE,141,2.3,2.3,78,0.00,CLR,CLR,0.36,WeatherDisplay:10.37,2013-07-05 16:10:00,
2013-07-05 12:16:00,80.5,73.8,28.78,South,169,4.6,4.6,80,0.00,CLR,CLR,0.36,WeatherDisplay:10.37,2013-07-05 16:16:00,
2013-07-05 12:21:00,80.8,73.3,28.79,SE,131,6.0,6.0,78,0.00,CLR,CLR,0.36,WeatherDisplay:10.37,2013-07-05 16:21:00,
2013-07-05 12:26:00,80.3,73.2,28.76,South,187,6.9,6.9,79,0.00,CLR,CLR,0.36,WeatherDisplay:10.37,2013-07-05 16:26:00,
2013-07-05 12:31:00,79.6,72.5,28.76,SSW,195,4.0,4.0,79,0.00,CLR,CLR,0.36,WeatherDisplay:10.37,2013-07-05 16:31:00,
2013-07-05 12:33:00,79.4,72.7,28.76,South,191,3.5,3.5,80,0.00,CLR,CLR,0.36,WeatherDisplay:10.37,2013-07-05 16:33:00,
2013-07-05 12:38:00,78.9,72.6,28.74,SSW,199,4.6,4.6,81,0.02,RA,RA,0.40,WeatherDisplay:10.37,2013-07-05 16:38:00,
2013-07-05 12:43:00,78.3,72.7,28.76,South,174,5.8,5.8,83,0.09,RA,RA,0.45,WeatherDisplay:10.37,2013-07-05 16:43:00,
2013-07-05 12:48:00,77.8,72.6,28.73,South,178,6.0,6.0,84,0.09,RA,RA,0.45,WeatherDisplay:10.37,2013-07-05 16:48:00,
2013-07-05 12:54:00,77.4,72.2,28.75,South,191,5.8,5.8,84,0.09,,,0.45,WeatherDisplay:10.37,2013-07-05 16:54:00,
2013-07-05 12:59:00,78.0,73.8,28.75,SW,218,7.0,7.0,87,0.09,CLR,CLR,0.45,WeatherDisplay:10.37,2013-07-05 16:59:00,
2013-07-05 13:04:00,78.5,74.0,28.73,SW,221,6.9,6.9,86,0.09,CLR,CLR,0.45,WeatherDisplay:10.37,2013-07-05 17:04:00,
2013-07-05 13:09:00,78.7,74.2,28.73,SSW,212,6.9,6.9,86,0.09,CLR,CLR,0.45,WeatherDisplay:10.37,2013-07-05 17:09:00,
2013-07-05 13:14:00,79.0,74.1,28.73,SSE,166,4.0,4.0,85,0.09,CLR,CLR,0.45,WeatherDisplay:10.37,2013-07-05 17:14:00,
2013-07-05 13:19:00,79.4,74.1,28.74,SSE,149,4.6,4.6,84,0.09,CLR,CLR,0.45,WeatherDisplay:10.37,2013-07-05 17:19:00,
2013-07-05 13:24:00,79.9,75.0,28.77,SSW,201,3.5,3.5,85,0.09,CLR,CLR,0.45,WeatherDisplay:10.37,2013-07-05 17:24:00,
2013-07-05 13:29:00,80.1,74.5,28.76,South,181,4.6,4.6,83,0.09,CLR,CLR,0.45,WeatherDisplay:10.37,2013-07-05 17:29:00,
2013-07-05 13:35:00,79.7,73.7,28.75,SE,140,2.3,2.3,82,0.09,CLR,CLR,0.45,WeatherDisplay:10.37,2013-07-05 17:35:00,
2013-07-05 13:40:00,80.3,75.4,28.76,SSW,208,6.0,6.0,85,0.05,CLR,CLR,0.45,WeatherDisplay:10.37,2013-07-05 17:40:00,
2013-07-05 13:42:00,80.5,74.9,28.76,SSE,168,5.8,5.8,83,0.01,CLR,CLR,0.45,WeatherDisplay:10.37,2013-07-05 17:42:00,
2013-07-05 13:48:00,80.9,74.1,28.78,South,180,5.8,5.8,80,0.00,CLR,CLR,0.45,WeatherDisplay:10.37,2013-07-05 17:48:00,
2013-07-05 13:53:00,81.1,75.4,28.84,ESE,109,4.6,4.6,83,0.00,CLR,CLR,0.45,WeatherDisplay:10.37,2013-07-05 17:53:00,
2013-07-05 13:58:00,81.5,74.7,28.78,South,175,6.9,6.9,80,0.00,CLR,CLR,0.45,WeatherDisplay:10.37,2013-07-05 17:58:00,
2013-07-05 14:03:00,81.6,76.3,28.85,SSE,160,4.6,4.6,84,0.00,CLR,CLR,0.45,WeatherDisplay:10.37,2013-07-05 18:03:00,
2013-07-05 14:08:00,81.1,75.1,28.76,South,190,6.0,6.0,82,0.00,CLR,CLR,0.45,WeatherDisplay:10.37,2013-07-05 18:08:00,
2013-07-05 14:14:00,80.5,74.5,28.76,South,187,9.2,9.2,82,0.00,CLR,CLR,0.45,WeatherDisplay:10.37,2013-07-05 18:14:00,
2013-07-05 14:16:00,80.2,74.2,28.79,South,187,8.1,8.1,82,0.00,CLR,CLR,0.45,WeatherDisplay:10.37,2013-07-05 18:16:00,
2013-07-05 14:21:00,80.0,74.7,28.78,South,172,5.0,5.0,84,0.00,CLR,CLR,0.45,WeatherDisplay:10.37,2013-07-05 18:21:00,
2013-07-05 14:24:00,80.0,75.1,28.77,South,176,9.0,9.0,85,0.00,CLR,CLR,0.45,WeatherDisplay:10.37,2013-07-05 18:24:00,
2013-07-05 14:29:00,80.3,75.0,28.77,South,189,11.5,11.5,84,0.00,CLR,CLR,0.45,WeatherDisplay:10.37,2013-07-05 18:29:00,
2013-07-05 14:34:00,80.6,75.3,28.77,West,279,8.1,8.1,84,0.00,CLR,CLR,0.45,WeatherDisplay:10.37,2013-07-05 18:34:00,
2013-07-05 14:39:00,80.3,74.3,28.78,South,180,8.1,8.1,82,0.00,CLR,CLR,0.45,WeatherDisplay:10.37,2013-07-05 18:39:00,
2013-07-05 14:44:00,80.6,74.6,28.75,South,173,9.2,9.2,82,0.00,CLR,CLR,0.45,WeatherDisplay:10.37,2013-07-05 18:44:00,
2013-07-05 14:49:00,80.3,74.7,28.75,SSW,205,3.5,3.5,83,0.01,RA,RA,0.46,WeatherDisplay:10.37,2013-07-05 18:49:00,
2013-07-05 14:55:00,79.6,74.0,28.74,ESE,112,3.5,3.5,83,0.02,RA,RA,0.47,WeatherDisplay:10.37,2013-07-05 18:55:00,
2013-07-05 15:00:00,79.3,74.4,28.74,SSE,160,3.5,3.5,85,0.02,RA,RA,0.47,WeatherDisplay:10.37,2013-07-05 19:00:00,
2013-07-05 15:05:00,78.8,73.6,28.72,SSE,160,3.5,3.5,84,0.02,CLR,CLR,0.47,WeatherDisplay:10.37,2013-07-05 19:05:00,
2013-07-05 15:10:00,78.4,73.5,28.74,SSE,160,2.3,2.3,85,0.02,CLR,CLR,0.47,WeatherDisplay:10.37,2013-07-05 19:10:00,
2013-07-05 15:15:00,78.1,73.2,28.73,SSE,160,0.0,0.0,85,0.02,CLR,CLR,0.47,WeatherDisplay:10.37,2013-07-05 19:15:00,
2013-07-05 15:21:00,77.8,72.9,28.73,SSE,160,1.0,1.0,85,0.02,CLR,CLR,0.47,WeatherDisplay:10.37,2013-07-05 19:21:00,
2013-07-05 15:26:00,78.0,73.8,28.73,SSE,160,2.3,2.3,87,0.02,CLR,CLR,0.47,WeatherDisplay:10.37,2013-07-05 19:26:00,
2013-07-05 15:31:00,78.2,74.0,28.74,SSE,160,3.5,3.5,87,0.02,CLR,CLR,0.47,WeatherDisplay:10.37,2013-07-05 19:31:00,
2013-07-05 15:36:00,78.4,73.9,28.73,SW,214,5.8,5.8,86,0.02,CLR,CLR,0.47,WeatherDisplay:10.37,2013-07-05 19:36:00,
2013-07-05 15:41:00,78.7,74.2,28.74,SSE,149,3.5,3.5,86,0.02,CLR,CLR,0.47,WeatherDisplay:10.37,2013-07-05 19:41:00,
2013-07-05 15:46:00,79.0,74.5,28.72,SE,140,2.3,2.3,86,0.02,CLR,CLR,0.47,WeatherDisplay:10.37,2013-07-05 19:46:00,
2013-07-05 15:52:00,79.1,74.9,28.72,East,88,4.6,4.6,87,0.01,CLR,CLR,0.47,WeatherDisplay:10.37,2013-07-05 19:52:00,
2013-07-05 15:57:00,78.9,74.4,28.74,WSW,242,3.5,3.5,86,0.00,CLR,CLR,0.47,WeatherDisplay:10.37,2013-07-05 19:57:00,
2013-07-05 16:02:00,78.8,74.6,28.74,SW,235,2.3,2.3,87,0.00,CLR,CLR,0.47,WeatherDisplay:10.37,2013-07-05 20:02:00,
2013-07-05 16:03:00,78.8,74.3,28.75,SW,235,2.3,2.3,86,0.00,CLR,CLR,0.47,WeatherDisplay:10.37,2013-07-05 20:03:00,
2013-07-05 16:08:00,78.9,75.0,28.72,SW,235,2.3,2.3,88,0.00,CLR,CLR,0.47,WeatherDisplay:10.37,2013-07-05 20:08:00,
2013-07-05 16:13:00,79.1,74.9,28.72,SSE,158,3.5,3.5,87,0.00,CLR,CLR,0.47,WeatherDisplay:10.37,2013-07-05 20:13:00,
2013-07-05 16:18:00,79.3,74.0,28.72,SE,130,3.5,3.5,84,0.00,CLR,CLR,0.47,WeatherDisplay:10.37,2013-07-05 20:18:00,
2013-07-05 16:23:00,79.5,75.3,28.72,SSW,198,4.6,4.6,87,0.00,CLR,CLR,0.47,WeatherDisplay:10.37,2013-07-05 20:23:00,
2013-07-05 16:28:00,79.8,74.9,28.73,SSW,198,4.6,4.6,85,0.00,CLR,CLR,0.47,WeatherDisplay:10.37,2013-07-05 20:28:00,
2013-07-05 16:34:00,79.9,74.6,28.75,South,187,5.8,5.8,84,0.00,CLR,CLR,0.47,WeatherDisplay:10.37,2013-07-05 20:34:00,
2013-07-05 16:39:00,79.5,74.2,28.75,SSW,201,8.1,8.1,84,0.00,CLR,CLR,0.47,WeatherDisplay:10.37,2013-07-05 20:39:00,
2013-07-05 16:44:00,79.2,73.9,28.76,South,180,8.1,8.1,84,0.00,CLR,CLR,0.47,WeatherDisplay:10.37,2013-07-05 20:44:00,
2013-07-05 16:49:00,79.0,73.7,28.72,South,184,5.8,5.8,84,0.00,CLR,CLR,0.47,WeatherDisplay:10.37,2013-07-05 20:49:00,
2013-07-05 16:54:00,79.3,74.4,28.74,South,182,5.8,5.8,85,0.00,CLR,CLR,0.47,WeatherDisplay:10.37,2013-07-05 20:54:00,
2013-07-05 17:00:00,79.5,74.2,28.73,SSW,199,5.8,5.8,84,0.01,RA,RA,0.48,WeatherDisplay:10.37,2013-07-05 21:00:00,
2013-07-05 17:05:00,79.4,74.1,28.73,South,184,4.6,4.6,84,0.01,RA,RA,0.48,WeatherDisplay:10.37,2013-07-05 21:05:00,
2013-07-05 17:10:00,79.3,74.7,28.74,SW,215,6.9,6.9,86,0.01,,,0.48,WeatherDisplay:10.37,2013-07-05 21:10:00,
2013-07-05 17:15:00,79.2,74.6,28.74,South,190,6.9,6.9,86,0.01,CLR,CLR,0.48,WeatherDisplay:10.37,2013-07-05 21:15:00,
2013-07-05 17:20:00,79.2,74.6,28.73,SSW,205,5.8,5.8,86,0.01,CLR,CLR,0.48,WeatherDisplay:10.37,2013-07-05 21:20:00,
2013-07-05 17:26:00,79.2,74.3,28.74,SSW,202,8.1,8.1,85,0.01,CLR,CLR,0.48,WeatherDisplay:10.37,2013-07-05 21:26:00,
2013-07-05 17:31:00,79.0,74.1,28.73,SSE,149,5.8,5.8,85,0.01,CLR,CLR,0.48,WeatherDisplay:10.37,2013-07-05 21:31:00,
2013-07-05 17:36:00,78.9,74.0,28.73,South,184,6.9,6.9,85,0.01,CLR,CLR,0.48,WeatherDisplay:10.37,2013-07-05 21:36:00,
2013-07-05 17:41:00,78.9,74.4,28.73,South,187,6.0,6.0,86,0.01,CLR,CLR,0.48,WeatherDisplay:10.37,2013-07-05 21:41:00,
2013-07-05 17:46:00,78.8,73.9,28.74,SSW,208,3.5,3.5,85,0.01,CLR,CLR,0.48,WeatherDisplay:10.37,2013-07-05 21:46:00,
2013-07-05 17:52:00,78.6,73.7,28.82,South,180,3.5,3.5,85,0.01,CLR,CLR,0.48,WeatherDisplay:10.37,2013-07-05 21:52:00,
2013-07-05 17:57:00,78.4,73.9,28.82,SSE,166,10.4,10.4,86,0.01,CLR,CLR,0.48,WeatherDisplay:10.37,2013-07-05 21:57:00,
2013-07-05 18:02:00,78.3,74.1,28.67,South,174,4.6,4.6,87,0.00,CLR,CLR,0.48,WeatherDisplay:10.37,2013-07-05 22:02:00,
2013-07-05 18:07:00,78.0,73.8,28.66,South,190,3.5,3.5,87,0.00,CLR,CLR,0.48,WeatherDisplay:10.37,2013-07-05 22:07:00,
2013-07-05 18:08:00,77.9,73.7,28.66,South,190,3.5,3.5,87,0.00,CLR,CLR,0.48,WeatherDisplay:10.37,2013-07-05 22:08:00,
2013-07-05 18:13:00,77.5,73.7,28.65,South,190,3.0,3.0,88,0.00,CLR,CLR,0.48,WeatherDisplay:10.37,2013-07-05 22:13:00,
2013-07-05 18:18:00,77.3,73.8,28.66,South,183,3.5,3.5,89,0.00,CLR,CLR,0.48,WeatherDisplay:10.37,2013-07-05 22:18:00,
2013-07-05 18:23:00,77.0,73.5,28.66,SW,214,3.5,3.5,89,0.00,CLR,CLR,0.48,WeatherDisplay:10.37,2013-07-05 22:23:00,
2013-07-05 18:29:00,76.9,73.7,28.66,South,173,5.0,5.0,90,0.00,CLR,CLR,0.48,WeatherDisplay:10.37,2013-07-05 22:29:00,
2013-07-05 18:34:00,77.0,73.5,28.65,SSW,194,3.5,3.5,89,0.00,CLR,CLR,0.48,WeatherDisplay:10.37,2013-07-05 22:34:00,
2013-07-05 18:39:00,77.0,73.5,28.66,South,187,3.5,3.5,89,0.00,CLR,CLR,0.48,WeatherDisplay:10.37,2013-07-05 22:39:00,
2013-07-05 18:44:00,77.1,73.6,28.66,South,183,0.0,0.0,89,0.00,CLR,CLR,0.48,WeatherDisplay:10.37,2013-07-05 22:44:00,
2013-07-05 18:49:00,77.2,73.7,28.66,South,178,3.5,3.5,89,0.00,CLR,CLR,0.48,WeatherDisplay:10.37,2013-07-05 22:49:00,
2013-07-05 18:54:00,77.4,74.2,28.66,South,177,1.2,1.2,90,0.00,CLR,CLR,0.48,WeatherDisplay:10.37,2013-07-05 22:54:00,
2013-07-05 18:59:00,77.4,74.2,28.66,South,178,3.5,3.5,90,0.00,CLR,CLR,0.48,WeatherDisplay:10.37,2013-07-05 22:59:00,
2013-07-05 19:04:00,77.3,73.8,28.65,South,178,1.2,0.0,89,0.00,CLR,CLR,0.48,WeatherDisplay:10.37,2013-07-05 23:04:00,
2013-07-05 19:10:00,77.3,74.1,28.65,South,178,3.5,3.5,90,0.00,CLR,CLR,0.48,WeatherDisplay:10.37,2013-07-05 23:10:00,
2013-07-05 19:15:00,77.2,73.7,28.65,South,187,3.5,3.5,89,0.00,CLR,CLR,0.48,WeatherDisplay:10.37,2013-07-05 23:15:00,
2013-07-05 19:20:00,77.1,73.6,28.66,South,186,3.5,3.5,89,0.00,CLR,CLR,0.48,WeatherDisplay:10.37,2013-07-05 23:20:00,
2013-07-05 19:26:00,76.9,73.4,28.65,South,183,3.5,3.5,89,0.00,CLR,CLR,0.48,WeatherDisplay:10.37,2013-07-05 23:26:00,
2013-07-05 19:31:00,76.7,73.2,28.65,South,181,5.8,5.8,89,0.00,CLR,CLR,0.48,WeatherDisplay:10.37,2013-07-05 23:31:00,
2013-07-05 19:36:00,76.7,73.2,28.65,SSE,167,3.5,3.5,89,0.00,CLR,CLR,0.48,WeatherDisplay:10.37,2013-07-05 23:36:00,
2013-07-05 19:41:00,76.5,73.0,28.65,SSE,166,4.6,4.6,89,0.00,CLR,CLR,0.48,WeatherDisplay:10.37,2013-07-05 23:41:00,
2013-07-05 19:46:00,76.3,73.1,28.65,South,175,4.0,4.0,90,0.00,CLR,CLR,0.48,WeatherDisplay:10.37,2013-07-05 23:46:00,
2013-07-05 19:51:00,76.0,72.5,28.66,SSE,166,6.9,6.9,89,0.00,CLR,CLR,0.48,WeatherDisplay:10.37,2013-07-05 23:51:00,
2013-07-05 19:57:00,75.9,72.8,28.65,SSW,196,5.0,5.0,90,0.00,CLR,CLR,0.48,WeatherDisplay:10.37,2013-07-05 23:57:00,
2013-07-05 20:02:00,75.7,72.9,28.67,SSE,160,8.1,8.1,91,0.00,CLR,CLR,0.48,WeatherDisplay:10.37,2013-07-06 00:02:00,
2013-07-05 20:07:00,75.6,72.8,28.67,SSE,158,1.2,0.0,91,0.00,CLR,CLR,0.48,WeatherDisplay:10.37,2013-07-06 00:07:00,
2013-07-05 20:12:00,75.3,72.8,28.67,South,170,4.6,4.6,92,0.00,CLR,CLR,0.48,WeatherDisplay:10.37,2013-07-06 00:12:00,
2013-07-05 20:17:00,75.1,72.9,28.67,SSE,167,3.5,3.5,93,0.00,CLR,CLR,0.48,WeatherDisplay:10.37,2013-07-06 00:17:00,
2013-07-05 20:22:00,74.8,72.6,28.66,South,174,3.5,3.5,93,0.00,CLR,CLR,0.48,WeatherDisplay:10.37,2013-07-06 00:22:00,
2013-07-05 20:23:00,74.8,72.6,28.66,South,174,3.5,3.5,93,0.00,CLR,CLR,0.48,WeatherDisplay:10.37,2013-07-06 00:23:00,
2013-07-05 20:28:00,74.6,72.4,28.67,SSE,153,5.8,5.8,93,0.00,CLR,CLR,0.48,WeatherDisplay:10.37,2013-07-06 00:28:00,
2013-07-05 20:33:00,74.4,72.6,28.67,SSE,161,2.3,2.3,94,0.00,CLR,CLR,0.48,WeatherDisplay:10.37,2013-07-06 00:33:00,
2013-07-05 20:38:00,74.2,72.4,28.66,SSE,161,3.5,3.5,94,0.00,CLR,CLR,0.48,WeatherDisplay:10.37,2013-07-06 00:38:00,
2013-07-05 20:43:00,74.0,72.2,28.66,SSE,161,2.3,2.3,94,0.00,CLR,CLR,0.48,WeatherDisplay:10.37,2013-07-06 00:43:00,
2013-07-05 20:48:00,73.7,71.5,28.66,SSE,161,1.2,1.2,93,0.00,CLR,CLR,0.48,WeatherDisplay:10.37,2013-07-06 00:48:00,
2013-07-05 20:49:00,73.7,71.5,28.66,SSE,161,1.2,1.2,93,0.00,CLR,CLR,0.48,WeatherDisplay:10.37,2013-07-06 00:49:00,
2013-07-05 20:54:00,73.5,71.4,28.66,SSW,194,1.2,0.0,93,0.00,CLR,CLR,0.48,WeatherDisplay:10.37,2013-07-06 00:54:00,
2013-07-05 21:00:00,73.4,71.3,28.67,SSW,194,0.0,0.0,93,0.00,CLR,CLR,0.48,WeatherDisplay:10.37,2013-07-06 01:00:00,
2013-07-05 21:05:00,73.2,71.1,28.66,SSW,194,0.0,0.0,93,0.00,CLR,CLR,0.48,WeatherDisplay:10.37,2013-07-06 01:05:00,
2013-07-05 21:10:00,73.0,70.9,28.66,SSW,194,2.3,2.3,93,0.00,CLR,CLR,0.48,WeatherDisplay:10.37,2013-07-06 01:10:00,
2013-07-05 21:15:00,72.8,71.0,28.67,SSW,194,0.0,0.0,94,0.00,CLR,CLR,0.48,WeatherDisplay:10.37,2013-07-06 01:15:00,
2013-07-05 21:20:00,72.6,70.8,28.66,SSW,194,0.0,0.0,94,0.00,CLR,CLR,0.48,WeatherDisplay:10.37,2013-07-06 01:20:00,
2013-07-05 21:25:00,72.5,70.4,28.67,SSW,194,2.3,2.3,93,0.00,CLR,CLR,0.48,WeatherDisplay:10.37,2013-07-06 01:25:00,
2013-07-05 21:30:00,72.5,70.4,28.67,SSW,194,0.0,0.0,93,0.00,CLR,CLR,0.48,WeatherDisplay:10.37,2013-07-06 01:30:00,
2013-07-05 21:35:00,72.5,70.0,28.66,SSW,194,0.0,0.0,92,0.00,CLR,CLR,0.48,WeatherDisplay:10.37,2013-07-06 01:35:00,
2013-07-05 21:40:00,72.5,70.0,28.67,SSW,194,0.0,0.0,92,0.00,CLR,CLR,0.48,WeatherDisplay:10.37,2013-07-06 01:40:00,
2013-07-05 21:45:00,72.5,70.0,28.67,SSW,194,0.0,0.0,92,0.00,CLR,CLR,0.48,WeatherDisplay:10.37,2013-07-06 01:45:00,
2013-07-05 21:50:00,72.5,70.0,28.67,SSW,194,0.0,0.0,92,0.00,CLR,CLR,0.48,WeatherDisplay:10.37,2013-07-06 01:50:00,
2013-07-05 21:56:00,72.3,69.8,28.68,SSW,194,0.0,0.0,92,0.00,CLR,CLR,0.48,WeatherDisplay:10.37,2013-07-06 01:56:00,
2013-07-05 22:01:00,72.1,70.0,28.68,SSW,194,2.3,2.3,93,0.00,CLR,CLR,0.48,WeatherDisplay:10.37,2013-07-06 02:01:00,
2013-07-05 22:06:00,72.0,70.8,28.68,SSW,194,3.5,3.5,96,0.00,CLR,CLR,0.48,WeatherDisplay:10.37,2013-07-06 02:06:00,
2013-07-05 22:11:00,71.9,70.7,28.67,SSW,194,2.3,2.3,96,0.00,CLR,CLR,0.48,WeatherDisplay:10.37,2013-07-06 02:11:00,
2013-07-05 22:16:00,71.8,70.0,28.67,SSW,194,1.2,0.0,94,0.00,CLR,CLR,0.48,WeatherDisplay:10.37,2013-07-06 02:16:00,
2013-07-05 22:22:00,71.6,69.2,28.68,SSW,194,0.0,0.0,92,0.00,CLR,CLR,0.48,WeatherDisplay:10.37,2013-07-06 02:22:00,
2013-07-05 22:27:00,71.5,69.7,28.68,SSW,194,0.0,0.0,94,0.00,CLR,CLR,0.48,WeatherDisplay:10.37,2013-07-06 02:27:00,
2013-07-05 22:32:00,71.4,70.5,28.68,SSW,194,0.0,0.0,97,0.00,CLR,CLR,0.48,WeatherDisplay:10.37,2013-07-06 02:32:00,
2013-07-05 22:38:00,71.3,70.7,28.69,SSW,194,0.0,0.0,98,0.00,CLR,CLR,0.48,WeatherDisplay:10.37,2013-07-06 02:38:00,
2013-07-05 22:43:00,71.3,70.4,28.68,SSW,194,0.0,0.0,97,0.00,CLR,CLR,0.48,WeatherDisplay:10.37,2013-07-06 02:43:00,
2013-07-05 22:48:00,71.3,70.7,28.68,SSW,194,1.2,1.2,98,0.00,CLR,CLR,0.48,WeatherDisplay:10.37,2013-07-06 02:48:00,
2013-07-05 22:49:00,71.3,70.7,28.68,SSW,194,3.5,3.5,98,0.00,CLR,CLR,0.48,WeatherDisplay:10.37,2013-07-06 02:49:00,
2013-07-05 22:55:00,71.3,71.0,28.69,South,183,2.3,2.3,99,0.00,CLR,CLR,0.48,WeatherDisplay:10.37,2013-07-06 02:55:00,
2013-07-05 23:00:00,71.2,70.9,28.68,SSE,153,3.5,3.5,99,0.00,CLR,CLR,0.48,WeatherDisplay:10.37,2013-07-06 03:00:00,
2013-07-05 23:05:00,71.2,71.2,28.69,SSE,164,5.0,5.0,100,0.00,CLR,CLR,0.48,WeatherDisplay:10.37,2013-07-06 03:05:00,
2013-07-05 23:10:00,71.2,71.2,28.69,SSE,168,3.5,3.5,100,0.00,CLR,CLR,0.48,WeatherDisplay:10.37,2013-07-06 03:10:00,
2013-07-05 23:15:00,71.2,71.2,28.69,SSE,162,3.5,3.5,100,0.00,CLR,CLR,0.48,WeatherDisplay:10.37,2013-07-06 03:15:00,
2013-07-05 23:20:00,71.2,71.2,28.69,South,169,3.5,3.5,100,0.00,CLR,CLR,0.48,WeatherDisplay:10.37,2013-07-06 03:20:00,
2013-07-05 23:26:00,71.2,71.2,28.69,South,176,4.6,4.6,100,0.00,CLR,CLR,0.48,WeatherDisplay:10.37,2013-07-06 03:26:00,
2013-07-05 23:31:00,71.2,71.2,28.69,SSW,204,3.0,3.0,100,0.00,CLR,CLR,0.48,WeatherDisplay:10.37,2013-07-06 03:31:00,
2013-07-05 23:36:00,71.3,71.3,28.69,SW,224,5.8,5.8,100,0.00,CLR,CLR,0.48,WeatherDisplay:10.37,2013-07-06 03:36:00,
2013-07-05 23:41:00,71.4,71.4,28.69,South,178,5.0,5.0,100,0.00,CLR,CLR,0.48,WeatherDisplay:10.37,2013-07-06 03:41:00,
2013-07-05 23:46:00,71.4,71.4,28.69,SSW,195,4.6,4.6,100,0.00,CLR,CLR,0.48,WeatherDisplay:10.37,2013-07-06 03:46:00,
2013-07-05 23:51:00,71.3,71.3,28.68,SSW,193,5.8,5.8,100,0.00,CLR,CLR,0.48,WeatherDisplay:10.37,2013-07-06 03:51:00,
2013-07-05 23:57:00,71.2,71.2,28.67,South,191,2.3,2.3,100,0.00,CLR,CLR,0.48,WeatherDisplay:10.37,2013-07-06 03:57:00,